Wind_Speed
22 22 23 22 22 22 22 22 21 19 18 16 15 15 15 14 14 14 13 13 13 13 12 13 13 14 15 15 16 16 17 18 19 20 20 20 21 22 23 23 23 24 24 25
22 22 23 23 22 23 23 23 22 20 18 17 16 15 15 14 14 13 13 13 14 14 14 15 15 15 16 17 17 18 18 19 20 20 21 21 22 24 24 24 24 25 24 25
24 23 23 23 21 21 22 22 21 19 17 17 16 15 14 14 15 14 14 14 15 15 15 16 17 18 18 18 17 18 19 19 20 21 22 22 23 24 24 24 25 26 26 27
26 25 26 22 21 21 21 21 20 19 18 17 16 16 15 15 15 15 15 15 16 17 16 16 17 17 18 18 18 19 19 20 20 21 22 23 23 24 24 25 25 26 27 27
26 26 26 24 22 23 22 21 19 18 18 18 18 17 17 16 16 16 16 16 17 17 17 17 18 19 19 19 19 19 19 20 21 22 22 23 24 24 25 26 26 27 27 27
26 27 27 25 23 23 22 21 19 18 18 18 18 17 17 17 17 17 17 18 18 18 18 18 19 19 19 19 19 19 20 21 21 22 23 23 24 25 26 27 27 28 28 28
26 27 26 24 23 23 23 22 21 20 19 19 19 18 18 19 19 18 18 18 18 18 18 19 19 20 20 20 20 20 21 21 22 23 24 25 26 26 27 28 28 29 29 29
27 26 25 24 23 23 24 23 22 22 22 22 21 20 20 20 20 19 19 19 19 20 20 20 21 21 22 21 21 21 22 23 24 24 25 26 27 27 28 28 29 30 30 30
28 27 26 25 25 24 24 24 23 23 23 23 22 21 21 21 21 20 21 20 20 21 22 22 22 22 22 23 23 23 24 24 25 26 26 27 28 28 29 30 30 30 30 30
28 28 28 27 27 26 26 25 25 24 23 23 22 22 22 21 21 21 20 20 21 22 22 23 23 23 24 24 24 24 25 25 26 27 27 28 29 30 30 30 30 30 31 31
28 28 27 27 27 27 27 27 26 25 24 23 23 22 22 22 22 22 22 21 21 22 23 23 24 24 25 25 25 25 26 26 26 26 28 28 29 30 30 30 30 31 31 32
28 28 28 27 28 28 28 27 27 26 25 25 24 23 23 23 24 23 22 22 21 22 23 24 24 25 24 25 25 25 25 26 27 28 28 28 29 30 30 30 30 31 31 31
27 28 28 28 28 28 28 27 26 26 25 26 25 24 24 24 24 24 23 23 22 21 22 24 24 25 25 26 25 25 26 27 28 28 28 29 29 29 29 29 30 30 30 30
27 27 27 27 27 28 28 27 27 26 26 26 26 26 26 25 25 24 22 23 23 22 22 24 24 25 26 26 25 26 27 28 29 29 29 29 29 29 29 29 29 29 30 29
27 27 26 26 27 27 27 27 27 27 26 26 26 25 25 25 25 25 23 22 23 23 23 24 24 25 26 25 26 26 27 28 28 28 28 28 29 29 29 28 28 29 29 28
26 26 27 27 26 26 26 27 27 27 26 25 24 25 25 25 25 24 23 22 23 24 24 25 25 25 26 26 26 26 27 27 27 27 28 28 28 28 28 28 28 29 28 28
27 27 26 26 26 26 26 26 26 26 25 23 23 24 25 25 24 24 24 25 24 24 24 25 25 25 26 26 25 26 26 26 26 27 28 28 28 28 28 28 28 29 29 28
26 26 25 25 25 24 24 24 24 23 23 23 22 23 23 24 24 24 24 25 24 24 24 24 24 23 24 24 25 26 26 26 27 28 28 28 28 28 28 28 28 28 29 29
24 24 24 24 24 24 23 23 23 24 23 23 22 22 23 23 24 24 24 24 24 22 22 22 23 23 24 24 25 26 26 27 27 28 28 28 27 27 28 28 28 28 28 28
22 23 23 23 23 23 22 23 23 23 23 23 23 23 23 23 23 23 23 22 21 21 22 22 23 24 24 24 25 25 25 26 27 28 28 28 27 27 27 28 28 28 28 28
22 22 23 23 23 22 22 22 22 22 22 22 22 22 22 22 23 23 23 22 21 21 22 22 23 24 24 24 24 25 25 26 27 27 28 28 28 27 28 28 28 28 27 27
21 22 22 22 22 22 22 22 21 21 21 22 22 22 22 22 22 23 22 21 21 22 22 23 23 23 23 23 24 24 25 25 26 27 27 27 28 27 27 27 26 26 26 26
20 21 21 21 21 21 21 21 20 20 20 21 21 21 22 22 22 22 22 22 22 22 22 22 22 22 23 23 24 25 25 25 26 26 26 26 27 27 26 26 26 26 26 25
18 18 19 20 20 20 19 19 18 18 19 20 20 21 21 21 21 22 22 22 23 23 22 22 22 23 23 24 24 24 24 25 25 25 26 26 26 26 26 26 26 26 26 25
17 18 17 18 19 19 19 18 17 18 19 20 20 20 21 21 22 22 22 22 23 23 23 22 22 22 23 23 23 23 23 24 24 25 26 26 26 26 26 26 26 25 25 25
17 17 17 18 18 19 19 19 18 19 20 20 20 21 22 22 22 22 22 22 22 22 22 21 21 22 22 23 23 23 23 24 25 25 26 26 26 25 26 26 25 25 24 24
16 16 17 18 18 19 19 18 18 19 20 20 20 21 21 21 21 22 22 21 20 20 21 21 21 22 22 22 23 24 24 24 25 25 25 25 25 25 25 25 24 23 23 23
Wind_Direction
248 247 248 251 252 255 256 259 264 266 270 274 274 276 281 284 287 288 288 288 291 291 284 284 286 287 290 294 298 302 304 308 310 312 309 311 312 312 311 310 309 309 308 309
247 247 249 250 252 254 255 257 261 265 269 270 272 273 279 284 282 281 282 286 288 286 288 288 288 287 287 290 296 300 305 308 309 310 310 310 311 311 312 311 311 311 309 309
249 248 249 250 253 255 258 259 259 262 268 270 268 272 278 283 283 281 278 280 287 289 288 290 289 289 289 288 296 302 306 309 309 310 310 310 311 312 312 311 311 312 311 309
249 250 250 253 254 256 257 259 259 259 262 265 268 268 274 279 281 280 280 284 288 292 290 289 292 295 296 296 298 301 304 307 310 311 311 311 312 313 313 312 312 312 312 311
246 249 253 254 258 257 258 260 261 261 262 265 268 270 272 276 277 279 281 283 286 287 288 287 290 293 293 293 294 298 301 304 308 311 312 313 314 314 313 313 313 313 312 312
245 250 253 256 257 258 259 261 261 262 262 263 268 271 274 276 275 275 277 281 283 285 285 287 289 290 290 290 292 296 300 303 306 309 311 313 314 314 314 313 312 312 310 310
246 250 253 254 256 257 256 258 259 260 263 265 268 269 273 274 274 275 277 279 281 285 285 285 286 287 288 289 292 297 300 302 304 306 308 310 312 313 313 312 312 311 310 309
245 248 250 253 256 256 256 256 255 258 261 264 267 270 273 273 273 275 277 278 281 284 285 286 286 287 284 286 292 296 298 301 303 304 306 307 309 310 310 311 311 311 310 309
245 247 249 251 254 255 256 254 255 257 260 263 266 269 272 272 272 274 277 278 279 282 285 287 287 287 285 287 292 295 298 300 301 303 305 306 307 308 310 311 311 312 311 310
246 246 248 250 252 254 254 255 255 258 260 263 266 267 269 270 272 274 276 277 278 280 283 286 288 287 286 289 292 295 296 297 300 302 304 305 307 308 309 310 312 312 312 311
247 247 247 248 251 252 252 252 254 257 258 261 264 264 266 267 271 274 274 275 276 278 281 284 287 287 286 289 293 295 295 296 298 301 302 304 306 308 308 310 311 312 313 313
249 249 248 249 252 254 254 255 256 255 255 258 260 261 262 264 268 272 273 274 276 278 279 282 285 289 291 293 293 294 295 298 300 303 304 306 308 308 309 310 312 313 313 313
248 249 249 249 252 255 256 256 255 256 256 257 258 260 262 265 269 270 272 275 277 278 281 283 285 289 291 293 292 294 296 298 300 304 306 307 309 310 311 312 313 313 313 313
247 249 249 249 251 254 255 256 257 258 257 256 257 260 261 263 266 270 274 276 278 281 282 284 286 288 290 291 291 294 296 298 300 302 304 306 308 310 311 312 313 313 313 314
247 248 248 248 250 252 254 255 257 257 256 255 255 257 258 260 264 267 271 275 278 281 282 284 285 287 290 290 292 295 296 299 300 302 304 306 308 310 311 311 312 313 313 314
248 248 249 249 249 251 254 256 257 257 256 255 256 258 260 262 265 268 271 274 279 281 283 284 285 287 289 290 294 295 297 299 301 303 304 306 307 310 311 311 312 313 313 314
248 248 249 250 250 252 255 256 258 259 257 255 257 259 261 263 267 270 273 275 278 280 282 283 286 288 289 290 292 294 297 298 300 302 303 305 306 309 310 311 312 312 313 313
247 248 248 248 250 251 253 254 256 256 255 255 259 262 262 264 268 271 274 276 279 282 282 284 285 289 291 291 292 294 296 299 300 301 302 304 305 307 309 310 311 312 313 312
248 248 248 249 251 252 253 254 256 257 257 257 259 262 262 264 269 272 275 277 278 278 281 282 285 289 291 291 292 294 296 297 299 301 302 303 304 305 307 309 310 311 312 313
249 248 250 251 252 253 251 252 255 256 255 256 258 260 262 265 267 270 274 275 275 276 280 283 286 288 290 290 293 295 298 299 300 300 302 302 303 304 306 308 309 311 312 312
250 250 252 252 251 251 250 251 253 253 255 256 257 260 262 263 265 268 272 274 276 279 283 286 288 289 290 291 293 296 298 300 300 301 302 303 304 305 307 308 309 310 312 313
253 253 254 253 250 250 250 250 250 252 253 254 257 259 260 262 265 268 270 272 276 279 283 286 288 289 291 294 295 297 300 300 300 301 302 304 306 307 308 310 310 312 312 313
251 253 253 249 246 246 248 248 249 250 252 254 256 259 260 263 265 268 271 273 277 281 284 286 287 289 291 293 295 297 299 301 302 303 304 306 308 309 310 309 311 313 313 314
248 251 250 248 245 246 248 249 250 251 253 256 259 262 264 266 267 269 272 274 277 281 284 286 287 290 291 293 294 296 297 300 303 304 306 307 308 309 310 311 311 312 314 315
246 249 250 250 247 246 248 249 252 255 256 258 260 263 266 268 270 272 273 276 280 282 284 285 286 289 291 292 293 295 297 299 302 304 306 307 307 308 311 311 310 311 313 314
250 252 254 254 252 250 250 252 255 257 260 261 261 264 267 270 272 273 275 278 280 281 283 285 287 289 290 290 291 293 296 299 301 303 306 306 307 308 310 311 309 311 313 313
248 251 254 254 254 253 253 254 255 257 260 262 264 266 268 270 272 273 275 277 277 280 283 285 285 286 288 289 291 294 297 300 302 304 306 306 307 308 309 310 310 310 311 312
Height
5844 5846 5848 5849 5851 5852 5853 5853 5855 5856 5857 5857 5857 5857 5856 5855 5854 5854 5853 5852 5852 5851 5850 5849 5849 5849 5848 5847 5845 5844 5842 5841 5839 5836 5834 5832 5829 5827 5824 5821 5818 5815 5812 5809
5838 5840 5842 5844 5846 5847 5848 5849 5850 5851 5852 5853 5852 5852 5852 5851 5850 5850 5850 5849 5848 5848 5847 5846 5846 5845 5844 5843 5842 5840 5838 5836 5834 5832 5830 5827 5825 5822 5819 5816 5813 5810 5806 5803
5833 5835 5836 5839 5841 5842 5843 5844 5845 5846 5848 5848 5848 5848 5847 5847 5846 5846 5846 5845 5845 5844 5843 5842 5842 5841 5839 5838 5837 5836 5834 5832 5830 5828 5825 5823 5820 5817 5814 5811 5808 5804 5801 5798
5827 5830 5831 5836 5836 5837 5838 5839 5840 5841 5843 5843 5844 5844 5843 5843 5842 5842 5842 5841 5840 5839 5839 5838 5837 5837 5835 5834 5833 5832 5830 5828 5825 5823 5820 5818 5815 5812 5809 5806 5802 5799 5795 5792
5821 5823 5825 5829 5830 5831 5832 5834 5835 5836 5837 5838 5839 5839 5839 5839 5838 5838 5837 5837 5836 5835 5835 5834 5833 5832 5831 5830 5829 5827 5825 5823 5821 5818 5816 5813 5810 5807 5804 5800 5797 5793 5789 5786
5815 5817 5819 5823 5825 5825 5828 5828 5830 5831 5832 5833 5834 5835 5836 5835 5834 5833 5833 5832 5832 5831 5830 5830 5829 5828 5827 5825 5824 5822 5821 5819 5816 5814 5811 5808 5805 5802 5798 5795 5791 5787 5784 5780
5809 5811 5813 5816 5818 5820 5822 5824 5825 5826 5827 5828 5829 5830 5830 5830 5829 5828 5828 5827 5827 5826 5826 5825 5824 5823 5822 5820 5818 5817 5815 5813 5811 5808 5806 5803 5799 5796 5792 5789 5785 5781 5777 5773
5803 5805 5810 5810 5812 5814 5815 5816 5818 5820 5821 5822 5823 5824 5824 5824 5824 5823 5823 5822 5822 5821 5820 5819 5818 5817 5816 5814 5813 5811 5810 5808 5805 5802 5800 5796 5793 5790 5786 5782 5779 5775 5770 5766
5798 5801 5802 5804 5805 5807 5808 5810 5811 5813 5815 5816 5817 5818 5818 5818 5818 5818 5817 5817 5816 5816 5815 5814 5813 5812 5810 5809 5807 5806 5804 5801 5799 5796 5793 5790 5786 5783 5780 5776 5772 5768 5763 5759
5790 5793 5795 5797 5798 5800 5801 5803 5805 5806 5808 5809 5810 5811 5812 5812 5812 5812 5811 5811 5811 5810 5809 5808 5807 5806 5804 5803 5801 5799 5797 5795 5792 5789 5786 5783 5780 5776 5773 5769 5765 5761 5756 5752
5783 5786 5788 5790 5791 5793 5794 5796 5798 5799 5801 5802 5803 5804 5805 5805 5805 5805 5805 5805 5804 5804 5803 5802 5801 5799 5798 5796 5794 5793 5791 5789 5786 5783 5780 5776 5772 5769 5765 5762 5758 5754 5749 5745
5776 5778 5780 5783 5784 5785 5787 5789 5790 5792 5793 5795 5796 5797 5798 5798 5799 5799 5799 5798 5798 5797 5796 5795 5794 5793 5791 5790 5788 5786 5784 5782 5779 5776 5773 5769 5766 5762 5758 5754 5751 5746 5742 5738
5768 5770 5772 5774 5776 5778 5779 5781 5782 5784 5786 5787 5789 5790 5791 5792 5792 5792 5791 5791 5791 5790 5789 5788 5787 5786 5785 5783 5781 5779 5777 5775 5772 5769 5766 5763 5759 5755 5752 5748 5743 5739 5735 5731
5760 5762 5764 5767 5769 5770 5772 5773 5775 5776 5778 5780 5781 5783 5783 5784 5785 5785 5784 5784 5783 5782 5782 5781 5780 5779 5777 5775 5774 5772 5770 5768 5765 5762 5759 5756 5753 5749 5745 5741 5737 5733 5729 5724
5753 5754 5757 5759 5761 5762 5764 5765 5767 5769 5770 5772 5774 5775 5776 5776 5777 5777 5777 5777 5776 5776 5775 5774 5773 5772 5770 5768 5767 5765 5763 5760 5758 5755 5752 5749 5746 5742 5739 5735 5731 5727 5723 5718
5745 5747 5749 5751 5753 5755 5757 5758 5759 5761 5762 5764 5765 5767 5768 5769 5769 5769 5769 5769 5769 5769 5768 5767 5765 5764 5763 5762 5760 5758 5756 5753 5751 5748 5745 5742 5739 5735 5732 5728 5724 5721 5717 5713
5737 5739 5741 5743 5746 5747 5749 5750 5752 5753 5755 5756 5758 5759 5760 5761 5762 5762 5762 5762 5761 5761 5760 5760 5758 5757 5755 5754 5752 5751 5749 5746 5744 5741 5738 5735 5732 5729 5725 5722 5718 5714 5710 5706
5729 5732 5734 5736 5738 5739 5741 5743 5744 5746 5747 5748 5750 5752 5753 5754 5754 5755 5754 5753 5753 5753 5753 5752 5751 5750 5748 5747 5746 5744 5742 5739 5736 5734 5731 5728 5725 5722 5718 5715 5711 5708 5704 5700
5722 5724 5726 5728 5730 5732 5734 5735 5737 5739 5740 5742 5743 5745 5746 5746 5747 5747 5747 5746 5746 5746 5746 5745 5744 5743 5741 5740 5738 5737 5734 5732 5729 5726 5724 5721 5717 5714 5711 5708 5705 5701 5697 5693
5715 5717 5719 5721 5723 5724 5726 5728 5730 5731 5733 5735 5736 5737 5738 5739 5740 5740 5740 5740 5740 5739 5739 5738 5737 5736 5735 5733 5732 5730 5727 5725 5722 5719 5716 5714 5711 5707 5704 5701 5698 5695 5691 5687
5710 5711 5713 5714 5716 5718 5720 5721 5723 5725 5726 5728 5729 5731 5731 5732 5733 5734 5733 5733 5733 5732 5732 5731 5730 5729 5728 5726 5725 5723 5720 5718 5715 5713 5710 5707 5704 5701 5698 5694 5691 5688 5684 5681
5704 5706 5707 5708 5710 5712 5713 5715 5716 5718 5720 5721 5723 5724 5725 5726 5727 5727 5727 5727 5726 5726 5725 5724 5723 5722 5721 5719 5718 5716 5714 5711 5709 5706 5703 5701 5698 5694 5691 5688 5684 5681 5678 5674
5699 5700 5701 5703 5704 5706 5707 5709 5710 5712 5713 5715 5717 5718 5719 5719 5720 5720 5720 5720 5720 5719 5718 5717 5716 5715 5714 5712 5711 5709 5707 5704 5702 5699 5697 5694 5691 5688 5684 5681 5678 5674 5671 5668
5694 5695 5696 5698 5699 5700 5702 5703 5704 5706 5708 5709 5710 5712 5712 5713 5713 5713 5713 5713 5712 5712 5711 5710 5710 5708 5707 5705 5704 5702 5700 5698 5695 5693 5690 5687 5685 5681 5678 5675 5671 5668 5665 5661
5689 5690 5692 5693 5694 5695 5697 5698 5700 5701 5702 5704 5705 5705 5706 5706 5707 5707 5706 5706 5706 5705 5704 5703 5703 5701 5700 5699 5697 5695 5693 5691 5689 5686 5684 5681 5678 5675 5672 5668 5665 5662 5659 5655
5684 5685 5687 5688 5689 5690 5692 5693 5695 5696 5697 5698 5699 5699 5700 5700 5700 5700 5700 5699 5698 5698 5697 5697 5696 5694 5693 5692 5690 5689 5687 5685 5682 5680 5677 5674 5671 5668 5665 5662 5659 5656 5653 5649
5679 5681 5682 5683 5684 5685 5687 5688 5689 5690 5691 5692 5693 5693 5693 5693 5694 5693 5693 5693 5692 5692 5691 5690 5689 5688 5686 5685 5684 5682 5680 5678 5676 5673 5671 5668 5665 5662 5659 5656 5653 5650 5647 5643